Huntingburg, IN

11:35 AM EDT on June 25, 2017 (GMT -0400)
Huntingburg

Weather History for KHNB - November, 2013

Change the Weather History Date:

Wednesday, November 20, 2013

  Actual Average Record
Temperature  
Mean Temperature 40 °F -  
Max Temperature 53 °F 51 °F 68 °F (2007)
Min Temperature 28 °F 35 °F 19 °F (2014)
Degree Days  
Heating Degree Days 24    
Moisture  
Dew Point 29 °F    
Average Humidity 63    
Maximum Humidity 86    
Minimum Humidity 44    
Precipitation  
Precipitation 0.00 in - - ()
Sea Level Pressure  
Sea Level Pressure 30.22 in    
Wind  
Wind Speed 7 mph (ESE)    
Max Wind Speed 12 mph    
Max Gust Speed -    
Visibility 10 miles    
Events      
Averages and records for this station are not official NWS values.
T = Trace of Precipitation, MM = Missing Value Source: NWS Daily Summary

Daily Weather History Graph

Daily Weather History Graph

Search for Another Location

Airport or City:

Trip Planner

Search our weather history database for the weather conditions in past years. The results will help you decide how hot, cold, wet, or windy it might be!

Date:

Astronomy

Nov. 20, 2013 Rise Set
Actual Time 7:34 AM EST 5:31 PM EST
Civil Twilight 7:06 AM EST 6:00 PM EST
Nautical Twilight 6:33 AM EST 6:32 PM EST
Astronomical Twilight 6:02 AM EST 7:04 PM EST
Moon 8:14 PM EST (11/20) 9:59 AM EST (11/20)
Length of Visible Light 10h 54m
Length of Day
9h 57m
Waning Gibbous, 91% of the Moon is Illuminated
Nov 20
Waning Gibbous
Nov 25
Last Quarter
Dec 2
New
Dec 9
First Quarter
Dec 17
Full

Hourly Weather History & Observations

Time (EST) Temp. Windchill Dew Point Humidity Pressure Visibility Wind Dir Wind Speed Gust Speed Precip Events Conditions
12:15 AM 33.8 °F 28.6 °F 26.6 °F 75% 30.27 in 10.0 mi ENE 5.8 mph - N/A   Clear
12:35 AM 33.8 °F 27.0 °F 26.6 °F 75% 30.26 in 10.0 mi ENE 8.1 mph - N/A   Clear
12:55 AM 33.8 °F 27.0 °F 26.6 °F 75% 30.26 in 10.0 mi ENE 8.1 mph - N/A   Clear
1:15 AM 33.8 °F 27.7 °F 26.6 °F 75% 30.27 in 10.0 mi East 6.9 mph - N/A   Clear
1:35 AM 33.8 °F 28.6 °F 26.6 °F 75% 30.26 in 10.0 mi East 5.8 mph - N/A   Clear
1:55 AM 33.8 °F 30.8 °F 24.8 °F 70% 30.27 in 10.0 mi East 3.5 mph - N/A   Clear
2:15 AM 32.0 °F 27.5 °F 24.8 °F 75% 30.26 in 10.0 mi East 4.6 mph - N/A   Clear
2:35 AM 32.0 °F 26.4 °F 24.8 °F 75% 30.27 in 10.0 mi East 5.8 mph - N/A   Clear
2:55 AM 32.0 °F 27.5 °F 24.8 °F 75% 30.28 in 10.0 mi East 4.6 mph - N/A   Clear
3:15 AM 30.2 °F 24.3 °F 24.8 °F 80% 30.27 in 10.0 mi East 5.8 mph - N/A   Clear
3:35 AM 30.2 °F 25.4 °F 24.8 °F 80% 30.27 in 10.0 mi ENE 4.6 mph - N/A   Clear
3:55 AM 30.2 °F 23.4 °F 24.8 °F 80% 30.27 in 9.0 mi ENE 6.9 mph - N/A   Clear
4:15 AM 30.2 °F 24.3 °F 24.8 °F 80% 30.27 in 5.0 mi NNE 5.8 mph - N/A   Clear
4:35 AM 28.4 °F 22.2 °F 24.8 °F 86% 30.27 in 9.0 mi NE 5.8 mph - N/A   Clear
4:55 AM 30.2 °F 24.3 °F 24.8 °F 80% 30.26 in 7.0 mi ENE 5.8 mph - N/A   Clear
5:15 AM 30.2 °F 24.3 °F 24.8 °F 80% 30.26 in 8.0 mi ENE 5.8 mph - N/A   Clear
5:35 AM 30.2 °F 23.4 °F 24.8 °F 80% 30.25 in 10.0 mi ENE 6.9 mph - N/A   Clear
5:55 AM 30.2 °F 23.4 °F 24.8 °F 80% 30.25 in 10.0 mi East 6.9 mph - N/A   Clear
6:15 AM 30.2 °F 22.6 °F 24.8 °F 80% 30.25 in 10.0 mi East 8.1 mph - N/A   Clear
6:35 AM 30.2 °F 22.6 °F 24.8 °F 80% 30.25 in 10.0 mi East 8.1 mph - N/A   Clear
6:55 AM 30.2 °F 24.3 °F 24.8 °F 80% 30.25 in 10.0 mi East 5.8 mph - N/A   Clear
7:15 AM 30.2 °F 24.3 °F 24.8 °F 80% 30.26 in 10.0 mi East 5.8 mph - N/A   Clear
7:35 AM 30.2 °F 23.4 °F 24.8 °F 80% 30.26 in 10.0 mi East 6.9 mph - N/A   Clear
7:55 AM 30.2 °F 24.3 °F 24.8 °F 80% 30.26 in 10.0 mi East 5.8 mph - N/A   Clear
8:15 AM 30.2 °F 23.4 °F 24.8 °F 80% 30.26 in 10.0 mi ESE 6.9 mph - N/A   Clear
8:35 AM 32.0 °F 24.2 °F 26.6 °F 80% 30.26 in 10.0 mi ESE 9.2 mph - N/A   Clear
8:55 AM 33.8 °F 26.4 °F 26.6 °F 75% 30.26 in 10.0 mi ESE 9.2 mph - N/A   Clear
9:15 AM 33.8 °F 25.3 °F 26.6 °F 75% 30.26 in 10.0 mi ESE 11.5 mph - N/A   Clear
9:35 AM 35.6 °F 28.6 °F 26.6 °F 70% 30.26 in 10.0 mi SE 9.2 mph - N/A   Clear
9:55 AM 37.4 °F 29.8 °F 28.4 °F 70% 30.25 in 10.0 mi SE 11.5 mph - N/A   Clear
10:15 AM 37.4 °F 30.3 °F 28.4 °F 70% 30.26 in 10.0 mi SE 10.4 mph - N/A   Clear
10:35 AM 39.2 °F 33.0 °F 30.2 °F 70% 30.26 in 10.0 mi SE 9.2 mph - N/A   Clear
10:55 AM 42.8 °F 37.5 °F 30.2 °F 61% 30.26 in 10.0 mi SE 9.2 mph - N/A   Clear
11:15 AM 42.8 °F 38.0 °F 30.2 °F 61% 30.26 in 10.0 mi SE 8.1 mph - N/A   Clear
11:35 AM 44.6 °F 40.2 °F 32.0 °F 61% 30.24 in 10.0 mi SE 8.1 mph - N/A   Clear
11:55 AM 46.4 °F 41.9 °F 30.2 °F 53% 30.24 in 10.0 mi SE 9.2 mph - N/A   Clear
12:15 PM 48.2 °F - 30.2 °F 50% 30.22 in 10.0 mi South 8.1 mph - N/A   Clear
12:35 PM 48.2 °F - 32.0 °F 54% 30.21 in 10.0 mi South 10.4 mph - N/A   Clear
12:55 PM 50.0 °F - 30.2 °F 47% 30.20 in 10.0 mi South 10.4 mph - N/A   Clear
1:15 PM 50.0 °F - 32.0 °F 50% 30.19 in 10.0 mi SSE 9.2 mph - N/A   Clear
1:35 PM 50.0 °F - 30.2 °F 47% 30.19 in 10.0 mi South 6.9 mph - N/A   Clear
1:55 PM 51.8 °F - 32.0 °F 47% 30.18 in 10.0 mi South 9.2 mph - N/A   Clear
2:15 PM 53.6 °F - 33.8 °F 47% 30.17 in 9.0 mi SSE 6.9 mph - N/A   Clear
2:35 PM 53.6 °F - 32.0 °F 44% 30.17 in 10.0 mi South 9.2 mph - N/A   Clear
2:55 PM 53.6 °F - 32.0 °F 44% 30.17 in 10.0 mi South 11.5 mph - N/A   Clear
3:15 PM 53.6 °F - 33.8 °F 47% 30.17 in 10.0 mi SSW 11.5 mph - N/A   Clear
3:35 PM 53.6 °F - 32.0 °F 44% 30.16 in 10.0 mi South 9.2 mph - N/A   Clear
3:55 PM 53.6 °F - 33.8 °F 47% 30.17 in 10.0 mi South 8.1 mph - N/A   Clear
4:15 PM 53.6 °F - 33.8 °F 47% 30.17 in 10.0 mi South 6.9 mph - N/A   Clear
4:35 PM 53.6 °F - 33.8 °F 47% 30.17 in 10.0 mi South 3.5 mph - N/A   Clear
4:55 PM 53.6 °F - 33.8 °F 47% 30.17 in 10.0 mi SE 3.5 mph - N/A   Clear
5:15 PM 51.8 °F - 32.0 °F 47% 30.17 in 10.0 mi Calm Calm - N/A   Clear
5:35 PM 51.8 °F - 32.0 °F 47% 30.16 in 10.0 mi ESE 5.8 mph - N/A   Clear
5:55 PM 48.2 °F - 30.2 °F 50% 30.17 in 10.0 mi ESE 4.6 mph - N/A   Clear
6:15 PM 48.2 °F - 30.2 °F 50% 30.17 in 10.0 mi East 4.6 mph - N/A   Clear
6:35 PM 48.2 °F - 30.2 °F 50% 30.17 in 10.0 mi East 5.8 mph - N/A   Clear
6:55 PM 46.4 °F 43.5 °F 30.2 °F 53% 30.16 in 10.0 mi ESE 5.8 mph - N/A   Clear
7:15 PM 46.4 °F 43.5 °F 30.2 °F 53% 30.17 in 10.0 mi ESE 5.8 mph - N/A   Clear
7:35 PM 46.4 °F 45.2 °F 30.2 °F 53% 30.17 in 10.0 mi SE 3.5 mph - N/A   Clear
7:55 PM 46.4 °F 43.5 °F 30.2 °F 53% 30.17 in 10.0 mi ESE 5.8 mph - N/A   Clear
8:15 PM 44.6 °F 41.4 °F 32.0 °F 61% 30.17 in 10.0 mi ESE 5.8 mph - N/A   Clear
8:35 PM 46.4 °F 42.4 °F 32.0 °F 57% 30.17 in 10.0 mi SE 8.1 mph - N/A   Clear
8:55 PM 46.4 °F 41.9 °F 33.8 °F 62% 30.17 in 10.0 mi SE 9.2 mph - N/A   Clear
9:15 PM 46.4 °F 41.1 °F 33.8 °F 62% 30.17 in 10.0 mi SE 11.5 mph - N/A   Clear
9:35 PM 46.4 °F 41.9 °F 32.0 °F 57% 30.18 in 10.0 mi SE 9.2 mph - N/A   Clear
9:55 PM 46.4 °F 42.9 °F 33.8 °F 62% 30.19 in 10.0 mi SE 6.9 mph - N/A   Clear
10:15 PM 46.4 °F 41.9 °F 33.8 °F 62% 30.19 in 10.0 mi SE 9.2 mph - N/A   Clear
10:35 PM 46.4 °F 41.9 °F 33.8 °F 62% 30.19 in 10.0 mi ESE 9.2 mph - N/A   Clear
10:55 PM 46.4 °F 41.5 °F 32.0 °F 57% 30.19 in 10.0 mi SE 10.4 mph - N/A   Clear
11:15 PM 48.2 °F - 32.0 °F 54% 30.18 in 10.0 mi SE 10.4 mph - N/A   Clear
11:35 PM 48.2 °F - 32.0 °F 54% 30.20 in 10.0 mi SSE 5.8 mph - N/A   Clear
11:55 PM 48.2 °F - 30.2 °F 50% 30.20 in 10.0 mi SSE 6.9 mph - N/A   Clear